Location: Newark
(51.3000°N, 178.2000°W)
Time: 21:33:21
(UTC+00:00)

X-37B - Visible Passes

Search period start: 20 June 2021 00:00
Search period end: 30 June 2021 00:00
Orbit: 386 x 389 km, 45.0° (Epoch: 10 June)

Date Brightness Start Highest point End Pass type
(mag) Time Alt. Az. Time Alt. Az. Time Alt. Az.
20 Jun 2.2 12:47:05 20° SE 12:47:05 20° SE 12:48:38 10° ESE visible
20 Jun 2.0 14:19:38 10° WSW 14:22:01 19° SSW 14:24:24 10° SSE visible
21 Jun 1.8 13:24:10 23° S 13:24:10 23° S 13:26:27 10° SE visible
22 Jun 2.5 14:02:22 14° S 14:02:22 14° S 14:03:36 10° SSE visible
23 Jun 2.3 09:49:21 10° SSW 09:50:59 16° S 09:50:59 16° S visible
24 Jun 1.8 10:26:37 10° SW 10:28:56 23° S 10:28:56 23° S visible
25 Jun 2.0 09:28:37 10° SW 09:31:04 20° SSE 09:33:31 10° ESE visible
25 Jun 2.3 11:04:28 10° WSW 11:05:53 19° SW 11:05:53 19° SW visible
26 Jun 1.6 10:06:15 10° WSW 10:08:59 26° S 10:10:07 21° SE visible
27 Jun 1.8 09:08:08 10° SW 09:10:47 24° S 09:13:25 10° ESE visible
27 Jun 2.0 10:44:18 10° WSW 10:46:26 22° SSW 10:46:26 22° SSW visible
28 Jun 1.7 09:45:59 10° WSW 09:48:42 26° S 09:50:24 17° SE visible
29 Jun 2.2 10:24:14 10° WSW 10:26:35 19° SSW 10:26:35 19° SSW visible
